Weather Roundup
Issued by NWS Chicago, IL

Home | Current Version | Previous Version | Text Only | Print | Product List | Glossary On
Versions: 1 2 3 4 5 6 7 8 9 10 11 12 13 14 15 16 17 18 19 20 21 22 23 24 25 26 27 28 29 30 31 32 33 34 35 36 37 38 39 40 41 42 43 44 45 46 47 48 49 50
000
NZUS59 KLOT 281408
HRRLOT

CHICAGO AREA WEATHER ROUNDUP
NATIONAL WEATHER SERVICE CHICAGO/ROMEOVILLE IL
900 AM CDT SAT MAY 28 2016

NOTE: "FAIR" INDICATES FEW OR NO CLOUDS BELOW 12,000 FEET WITH NO
SIGNIFICANT WEATHER AND/OR OBSTRUCTIONS TO VISIBILITY.

* THESE STATIONS ARE NOT UNDER NWS QUALITY CONTROL. THEY ALSO MAY NOT
  REPORT WEATHER SUCH AS PRECIPITATION OR FOG.

ILZ005-006-012>014-019>023-281500-
NORTHEAST ILLINOIS

CITY           SKY/WX    TMP DP  RH WIND       PRES   REMARKS
OHARE          CLOUDY    72  65  78 S17       29.89R
MIDWAY         CLOUDY    74  64  71 S16G26    29.90R
AURORA         CLOUDY    74  66  76 S18G28    29.90R
LANSING*       CLOUDY    73  65  74 S18G24    29.93S
JOLIET*        CLOUDY    75  67  78 S16       29.92R
WAUKEGAN       CLOUDY    72  66  81 S15       29.88R
DUPAGE AIRPORT CLOUDY    73  65  75 S16G24    29.89R
WHEELING       CLOUDY    72  65  78 S15G22    29.90R
KANKAKEE*      CLOUDY    73  66  79 S14       29.94S
MORRIS*        PTSUNNY   72  66  81 S15G22    29.90R
LEWIS AIRPORT* CLOUDY    73  64  73 SW15      29.91R
$$

WIZ051-052-058>065-066-070>072-281500-
SOUTHEAST WISCONSIN

CITY           SKY/WX    TMP DP  RH WIND       PRES   REMARKS
MILWAUKEE      CLOUDY    73  66  78 S15       29.85R
KENOSHA*       CLOUDY    73  65  75 SW17G23   29.87R
RACINE*        CLOUDY    72  64  76 S12       29.88S
BURLINGTON     CLOUDY    71  65  81 S14G23    29.86R
WAUKESHA       CLOUDY    70  64  83 S15       29.86R
WEST BEND      CLOUDY    72  64  78 S12G18    29.84R
$$

INZ001>003-010>013-019-020-281500-
NORTHWEST INDIANA

CITY           SKY/WX    TMP DP  RH WIND       PRES   REMARKS
GARY*          PTSUNNY   75  72  88 S12G23    29.93R
MICHIGAN CITY* NOT AVBL
RENSSELAER*    NOT AVBL
VALPARAISO     CLOUDY    74  65  73 S15       29.95S
$$

LMZ740>746-281500-
SOUTHERN LAKE MICHIGAN

STATION/POSITION TIME  SKY/WX   TEMP WIND        PRES    VSBY
                                AIR  DIR/SP/G
                 (UTC)          (F)  (DEG/KT/KT) (MB)    (MI)
HARRISON CRIB    1300            71  200/ 23/ 25   N/A
BURNHAM HARBOR   1400            72  190/ 17/ 20   N/A
CALUMET HARBOR   1300            73  170/ 13/ 18 1012.1R
BURNS HARBOR     1301            73  190/ 19/ 25 1013.2S
MICHIGAN CITY    1300            72  170/ 16/ 19   N/A
$$

ABBREVIATIONS USED IN REMARKS
   TC - TEMPERATURE IN CELSIUS
  WCI - WIND CHILL INDEX
   HX - HEAT INDEX
  VSB - VISIBILITY
$$




USA.gov is the U.S. government's official web portal to all federal, state and local government web resources and services.